EW0609 Weather Reports


time (UTC)temp
C
wind
direction
speed
KPH
gust
KPH
rain 1hr
cm
rain 24hr
cm
rain mn
cm
humidity
%
barometer
mb
20260507185816 21 227 6.4 24.1 0.00 0.03 0.03 41 1017.2
20260507185317 20 223 11.3 24.1 0.00 0.03 0.03 42 1017.4
20260507184816 20 131 9.7 24.1 0.00 0.03 0.03 42 1017.4
20260507184317 20 217 6.4 17.7 0.00 0.03 0.03 42 1017.4
20260507183816 21 200 6.4 17.7 0.00 0.03 0.03 45 1017.6
20260507183316 20 235 8.0 22.5 0.00 0.03 0.03 45 1017.7
20260507182815 20 207 12.9 22.5 0.00 0.03 0.03 42 1018.0
20260507182315 19 244 8.0 19.3 0.00 0.03 0.03 47 1018.0
20260507181814 19 199 9.7 19.3 0.00 0.03 0.03 45 1018.2
20260507181314 18 238 9.7 19.3 0.00 0.03 0.03 46 1018.2
20260507180813 19 255 9.7 20.9 0.00 0.03 0.03 47 1018.3
20260507180312 19 195 8.0 20.9 0.00 0.03 0.03 48 1018.4
20260507175812 18 254 6.4 20.9 0.00 0.03 0.03 49 1018.5
20260507175315 19 230 9.7 20.9 0.00 0.03 0.03 51 1018.5
20260507174816 18 203 9.7 22.5 0.00 0.03 0.03 51 1018.6
20260507174311 18 235 12.9 22.5 0.00 0.03 0.03 51 1018.7
20260507173810 18 271 11.3 22.5 0.00 0.03 0.03 51 1018.8
20260507173310 17 196 11.3 22.5 0.00 0.03 0.03 52 1019.0
20260507172811 17 238 9.7 22.5 0.00 0.03 0.03 54 1019.1
20260507172310 17 180 14.5 22.5 0.00 0.03 0.03 51 1019.1
20260507171807 17 235 9.7 22.5 0.00 0.03 0.03 51 1019.2
20260507171308 17 252 11.3 22.5 0.00 0.03 0.03 52 1019.4
20260507170809 16 213 9.7 22.5 0.00 0.03 0.03 56 1019.4
20260507170658 16 212 11.3 22.5 0.00 0.03 0.03 54 1019.5
20260507165807 16 240 6.4 22.5 0.00 0.03 0.03 56 1019.5
20260507165649 16 259 6.4 22.5 0.00 0.03 0.03 56 1019.6
20260507164806 16 258 9.7 22.5 0.00 0.03 0.03 58 1019.8
20260507164306 16 207 9.7 22.5 0.00 0.03 0.03 58 1019.7
20260507163806 15 306 11.3 22.5 0.00 0.03 0.03 60 1019.8
20260507163656 15 269 8.0 22.5 0.00 0.03 0.03 60 1020.0
20260507163150 15 276 11.3 22.5 0.00 0.03 0.03 60 1020.0
20260507162307 15 176 11.3 22.5 0.00 0.03 0.03 60 1020.1
20260507162149 15 272 9.7 22.5 0.00 0.03 0.03 61 1020.1
20260507161302 14 268 6.4 20.9 0.00 0.03 0.03 62 1020.1
20260507160801 13 226 9.7 20.9 0.00 0.03 0.03 63 1020.1
20260507160649 13 238 11.3 19.3 0.00 0.03 0.03 63 1020.1
20260507155800 13 235 9.7 19.3 0.00 0.03 0.03 66 1020.2
20260507155259 13 213 9.7 17.7 0.00 0.03 0.03 66 1020.2
20260507154800 13 216 6.4 14.5 0.00 0.03 0.03 66 1020.2
20260507154541 12 165 6.4 17.7 0.00 0.03 0.03 70 1020.1
20260507154428 12 295 6.4 14.5 0.00 0.03 0.03 68 1020.2
20260507153648 12 164 6.4 17.7 0.00 0.03 0.03 73 1020.2
20260507152756 11 217 8.0 14.5 0.00 0.03 0.03 74 1020.2
20260507152300 11 227 8.0 16.1 0.00 0.03 0.03 77 1020.3
20260507151755 11 224 8.0 16.1 0.00 0.03 0.03 77 1020.4
20260507151651 10 288 6.4 16.1 0.00 0.03 0.03 81 1020.5
20260507150756 10 175 4.8 16.1 0.00 0.03 0.03 81 1020.6
20260507150253 9 266 8.0 16.1 0.00 0.03 0.03 81 1020.7
20260507145753 9 258 9.7 17.7 0.00 0.03 0.03 83 1020.6
20260507145255 8 268 6.4 17.7 0.00 0.03 0.03 85 1020.6
20260507144751 8 261 4.8 16.1 0.00 0.03 0.03 86 1020.7
20260507144638 8 286 9.7 16.1 0.00 0.03 0.03 87 1020.9
20260507143749 7 186 3.2 16.1 0.00 0.03 0.03 88 1020.9
20260507143249 7 237 6.4 16.1 0.00 0.03 0.03 88 1020.9
20260507142847 7 261 8.0 17.7 0.00 0.03 0.03 90 1021.1
20260507142422 6 233 8.0 17.7 0.00 0.03 0.03 89 1021.1
20260507141247 6 243 4.8 11.3 0.00 0.03 0.03 91 1021.1
20260507140749 6 226 6.4 9.7 0.00 0.03 0.03 91 1021.1
20260507140247 6 247 4.8 9.7 0.00 0.03 0.03 92 1021.0
20260507140138 6 245 3.2 9.7 0.00 0.03 0.03 92 1021.0
20260507135247 6 247 6.4 16.1 0.00 0.03 0.03 92 1021.1
20260507134745 6 234 6.4 16.1 0.00 0.03 0.03 92 1021.2
20260507134247 5 285 6.4 14.5 0.00 0.03 0.03 92 1021.2
20260507133746 5 274 8.0 14.5 0.00 0.03 0.03 92 1021.3
20260507133246 5 257 6.4 11.3 0.00 0.03 0.03 92 1021.2
20260507132746 5 241 6.4 8.0 0.00 0.03 0.03 92 1021.3
20260507132632 5 272 4.8 14.5 0.00 0.03 0.03 92 1021.3
20260507131742 5 350 3.2 14.5 0.00 0.03 0.03 92 1021.2
20260507131242 5 221 4.8 14.5 0.00 0.03 0.03 92 1021.2
20260507130741 5 261 4.8 14.5 0.00 0.03 0.03 92 1021.1
20260507130625 5 264 4.8 11.3 0.00 0.03 0.03 93 1021.1
20260507130133 5 230 3.2 9.7 0.00 0.03 0.03 92 1021.1
20260507125240 5 266 3.2 8.0 0.00 0.03 0.03 93 1021.1
20260507124740 5 292 4.8 8.0 0.00 0.03 0.03 93 1021.0
20260507124238 5 285 3.2 9.7 0.00 0.03 0.03 93 1021.0
20260507123738 5 262 4.8 9.7 0.00 0.03 0.03 92 1021.0
20260507123237 5 288 3.2 9.7 0.00 0.03 0.03 93 1021.0
20260507122737 5 252 3.2 14.5 0.00 0.03 0.03 93 1021.0
20260507122621 5 0 4.8 16.1 0.00 0.03 0.03 92 1020.9
20260507121737 5 255 8.0 16.1 0.00 0.03 0.03 92 1020.9
20260507121240 5 307 4.8 14.5 0.00 0.03 0.03 92 1020.9
20260507120738 5 264 6.4 14.5 0.00 0.03 0.03 92 1020.7
20260507120238 5 299 3.2 11.3 0.00 0.03 0.03 92 1020.7
20260507115736 5 305 3.2 11.3 0.00 0.03 0.03 92 1020.7
20260507115237 5 306 4.8 9.7 0.00 0.03 0.03 92 1020.7
20260507114735 5 275 4.8 9.7 0.00 0.03 0.03 92 1020.6
20260507114235 5 295 3.2 9.7 0.00 0.03 0.03 92 1020.6
20260507114125 5 281 3.2 11.3 0.00 0.03 0.03 92 1020.6
20260507113235 5 240 4.8 11.3 0.00 0.03 0.03 92 1020.6
20260507112734 5 317 6.4 9.7 0.00 0.03 0.03 92 1020.5
20260507112236 5 330 4.8 11.3 0.00 0.03 0.03 92 1020.5
20260507112126 5 357 4.8 11.3 0.00 0.03 0.03 92 1020.6
20260507111621 5 299 4.8 11.3 0.00 0.03 0.03 92 1020.7
20260507110735 5 305 6.4 11.3 0.00 0.03 0.03 92 1020.6
20260507110235 5 282 1.6 11.3 0.00 0.03 0.03 92 1020.6
20260507105733 5 312 3.2 9.7 0.00 0.03 0.03 92 1020.5
20260507105234 5 262 1.6 9.7 0.00 0.03 0.03 92 1020.5
20260507104733 5 245 4.8 9.7 0.00 0.03 0.03 91 1020.6
20260507104234 5 247 4.8 9.7 0.00 0.03 0.03 91 1020.7
20260507103734 5 255 3.2 9.7 0.00 0.03 0.03 91 1020.7
20260507103234 5 289 3.2 11.3 0.00 0.03 0.03 91 1020.7
20260507103120 5 268 4.8 11.3 0.00 0.03 0.03 91 1020.7
20260507102233 5 323 3.2 11.3 0.00 0.03 0.03 91 1020.7
20260507102119 5 323 1.6 11.3 0.00 0.03 0.03 91 1020.9
20260507101236 5 0 4.8 11.3 0.00 0.03 0.03 91 1020.7
20260507100734 5 347 4.8 8.0 0.00 0.03 0.03 91 1020.7
20260507100233 5 324 1.6 8.0 0.00 0.03 0.03 91 1020.7
20260507095733 5 300 1.6 11.3 0.00 0.03 0.03 91 1020.9
20260507095233 5 259 6.4 11.3 0.00 0.03 0.03 91 1020.9
20260507094733 5 331 4.8 9.7 0.00 0.03 0.03 91 1020.9
20260507094235 5 321 4.8 9.7 0.00 0.03 0.03 91 1020.7
20260507093733 6 329 4.8 6.4 0.00 0.03 0.03 91 1020.9
20260507093233 6 309 3.2 6.4 0.00 0.03 0.03 91 1020.9
20260507092735 6 298 3.2 6.4 0.00 0.03 0.03 90 1020.9
20260507092616 6 289 1.6 6.4 0.00 0.03 0.03 91 1020.9
20260507091733 6 327 1.6 6.4 0.00 0.03 0.03 90 1020.9
20260507091233 6 353 4.8 6.4 0.00 0.03 0.03 91 1020.9
20260507090733 6 340 1.6 9.7 0.00 0.03 0.03 91 1020.9
20260507090232 6 341 3.2 9.7 0.00 0.03 0.03 90 1020.6
20260507085733 6 330 3.2 6.4 0.00 0.03 0.03 90 1020.7
20260507085234 6 340 1.6 6.4 0.00 0.03 0.03 90 1020.7
20260507084734 6 334 1.6 9.7 0.00 0.03 0.03 90 1020.6
20260507084235 5 344 6.4 9.7 0.00 0.03 0.03 90 1020.4
20260507083733 5 140 0.0 6.4 0.00 0.03 0.03 90 1020.3
20260507083614 5 118 0.0 6.4 0.00 0.03 0.03 90 1020.4
20260507082733 6 125 1.6 6.4 0.00 0.03 0.03 89 1020.3
20260507082235 6 127 3.2 6.4 0.03 0.03 0.03 89 1020.3
20260507081733 6 135 0.0 4.8 0.03 0.03 0.03 89 1020.3
20260507081235 6 128 3.2 4.8 0.03 0.03 0.03 89 1020.4
20260507080733 6 87 0.0 6.4 0.03 0.03 0.03 89 1020.4
20260507080233 6 99 3.2 6.4 0.03 0.03 0.03 89 1020.5
20260507075734 6 78 0.0 3.2 0.03 0.00 0.03 89 1020.6
20260507075233 6 89 0.0 0.0 0.03 0.00 0.03 88 1020.5
20260507075130 6 52 0.0 3.2 0.03 0.00 0.03 88 1020.7
20260507074233 6 63 0.0 8.0 0.03 0.00 0.03 88 1020.7
20260507074121 6 55 1.6 8.0 0.03 0.00 0.03 88 1020.4
20260507073614 6 86 4.8 8.0 0.03 0.00 0.03 87 1020.5
20260507072734 6 103 4.8 6.4 0.03 0.00 0.03 87 1020.9
20260507072233 6 83 0.0 4.8 0.00 0.00 0.00 87 1021.2
20260507072123 6 347 1.6 6.4 0.00 0.00 0.00 86 1021.5
20260507071233 6 21 0.0 6.4 0.00 0.00 0.00 85 1021.4
20260507070734 6 0 1.6 11.3 0.00 0.00 0.00 84 1021.6
20260507070234 6 0 4.8 16.1 0.00 0.00 0.00 83 1021.6
20260507065735 6 357 4.8 16.1 0.00 0.00 0.00 81 1021.9
20260507065619 7 353 4.8 16.1 0.00 0.00 0.00 80 1022.0
20260507064732 7 309 9.7 20.9 0.00 0.00 0.00 79 1021.7
20260507064232 7 353 9.7 20.9 0.00 0.00 0.00 78 1022.0
20260507063732 7 357 6.4 19.3 0.00 0.00 0.00 77 1021.7
20260507063234 7 345 4.8 19.3 0.00 0.00 0.00 76 1022.1
20260507062734 7 357 8.0 14.5 0.00 0.00 0.00 75 1022.1
20260507062233 7 338 8.0 14.5 0.00 0.00 0.00 74 1021.9
20260507061734 7 354 4.8 14.5 0.00 0.00 0.00 73 1021.5
20260507061233 7 11 6.4 14.5 0.00 0.00 0.00 73 1021.4
20260507060733 7 0 3.2 14.5 0.00 0.00 0.00 73 1021.4
20260507060235 7 34 4.8 11.3 0.00 0.00 0.00 72 1021.2
20260507055732 7 0 3.2 16.1 0.00 0.00 0.00 71 1021.1
20260507055234 7 7 6.4 16.1 0.00 0.00 0.00 71 1021.2
20260507054732 7 18 0.0 11.3 0.00 0.00 0.00 72 1021.0
20260507054232 7 13 3.2 11.3 0.00 0.00 0.00 72 1020.9
20260507053732 7 37 3.2 9.7 0.00 0.00 0.00 72 1020.9
20260507053232 7 14 4.8 22.5 0.00 0.00 0.00 71 1021.0
20260507052732 7 16 9.7 22.5 0.00 0.00 0.00 70 1021.0
20260507052235 7 11 4.8 19.3 0.00 0.00 0.00 70 1021.0
20260507051733 7 7 6.4 19.3 0.00 0.00 0.00 69 1020.7
20260507051233 8 68 6.4 20.9 0.00 0.00 0.00 69 1020.7
20260507051114 8 13 8.0 20.9 0.00 0.00 0.00 68 1020.7
20260507050233 8 0 4.8 14.5 0.00 0.00 0.00 68 1020.5
20260507045733 8 4 4.8 19.3 0.00 0.00 0.00 67 1020.6
20260507045233 8 16 6.4 20.9 0.00 0.00 0.00 67 1020.9
20260507045122 8 14 8.0 20.9 0.00 0.00 0.00 67 1021.2
20260507044233 8 54 6.4 17.7 0.00 0.00 0.00 67 1021.0
20260507044054 8 1 4.8 22.5 0.00 0.00 0.00 67 1021.1
20260507043617 8 24 9.7 22.5 0.00 0.00 0.00 66 1021.4
20260507042732 8 20 9.7 25.7 0.00 0.00 0.00 66 1021.0
20260507042232 8 7 14.5 25.7 0.00 0.00 0.00 65 1020.6
20260507041733 8 3 14.5 24.1 0.00 0.00 0.00 63 1020.7
20260507041232 9 21 8.0 24.1 0.00 0.00 0.00 62 1020.6
20260507040734 9 32 11.3 24.1 0.00 0.00 0.00 61 1020.6
20260507040233 9 0 8.0 22.5 0.00 0.00 0.00 61 1020.5
20260507040123 9 44 8.0 25.7 0.00 0.00 0.00 61 1020.5
20260507035232 9 348 9.7 25.7 0.00 0.00 0.00 61 1020.4
20260507034735 9 34 9.7 37.0 0.00 0.00 0.00 61 1020.5
20260507034232 9 0 9.7 37.0 0.00 0.00 0.00 61 1020.6
20260507033734 10 37 14.5 25.7 0.00 0.00 0.00 60 1020.4
20260507033232 10 31 4.8 22.5 0.00 0.00 0.00 60 1020.4
20260507032732 9 49 11.3 30.6 0.00 0.00 0.00 60 1020.3
20260507032615 10 62 16.1 30.6 0.00 0.00 0.00 60 1020.2
20260507031733 10 34 9.7 27.4 0.00 0.00 0.00 61 1020.1
20260507031233 10 319 14.5 24.1 0.00 0.00 0.00 61 1020.0
20260507031012 10 344 12.9 27.4 0.00 0.00 0.00 58 1019.7
20260507030902 10 3 12.9 27.4 0.00 0.00 0.00 60 1019.8
20260507025733 11 35 6.4 22.5 0.00 0.00 0.00 57 1019.6
20260507025620 11 76 6.4 20.9 0.00 0.00 0.00 57 1019.7
20260507024733 11 20 9.7 30.6 0.00 0.00 0.00 58 1019.5
20260507024232 11 25 12.9 30.6 0.00 0.00 0.00 57 1019.4
20260507023732 11 23 14.5 27.4 0.00 0.00 0.00 57 1019.2
20260507023625 11 14 12.9 27.4 0.00 0.00 0.00 57 1019.0
20260507022733 11 16 6.4 20.9 0.00 0.00 0.00 57 1018.8
20260507022234 11 25 9.7 25.7 0.00 0.00 0.00 56 1018.6
20260507022122 11 6 11.3 25.7 0.00 0.00 0.00 55 1018.7
20260507021622 11 48 6.4 25.7 0.00 0.00 0.00 54 1018.6
20260507020732 12 20 11.3 25.7 0.00 0.00 0.00 54 1018.4
20260507020232 12 0 8.0 25.7 0.00 0.00 0.00 54 1018.2
20260507020125 12 347 8.0 22.5 0.00 0.00 0.00 55 1018.0
20260507015233 12 8 9.7 19.3 0.00 0.00 0.00 55 1017.6
20260507014731 12 6 3.2 14.5 0.00 0.00 0.00 56 1017.4
20260507014617 12 44 4.8 16.1 0.00 0.00 0.00 55 1017.2
20260507013732 12 14 6.4 19.3 0.00 0.00 0.00 55 1017.2
20260507013232 12 69 6.4 19.3 0.00 0.00 0.00 55 1016.9
20260507012735 12 23 3.2 11.3 0.00 0.00 0.00 54 1016.7
20260507012232 12 329 1.6 9.7 0.00 0.00 0.00 53 1016.6
20260507011732 13 44 1.6 11.3 0.00 0.00 0.00 53 1016.4
20260507011231 13 47 3.2 11.3 0.00 0.00 0.00 52 1016.2
20260507010732 13 49 3.2 11.3 0.00 0.00 0.00 52 1016.2
20260507010619 13 45 3.2 11.3 0.00 0.00 0.00 52 1015.8
20260507005733 13 47 3.2 9.7 0.00 0.00 0.00 52 1015.7
20260507005324 13 55 1.6 11.3 0.00 0.00 0.00 52 1015.7
20260507004901 13 71 1.6 11.3 0.00 0.00 0.00 52 1015.6
20260507004120 13 0 3.2 16.1 0.00 0.00 0.00 51 1015.4
20260507003232 14 52 3.2 17.7 0.00 0.00 0.00 51 1015.5
20260507002732 14 110 4.8 17.7 0.00 0.00 0.00 51 1015.5
20260507002233 13 0 1.6 17.7 0.00 0.00 0.00 51 1015.5
20260507001732 14 37 3.2 17.7 0.00 0.00 0.00 50 1015.3
20260507001233 15 100 3.2 20.9 0.00 0.00 0.00 49 1015.2
20260507000734 15 52 4.8 20.9 0.00 0.00 0.00 49 1015.1
20260507000233 15 63 4.8 17.7 0.00 0.00 0.00 49 1015.1
20260507000136 15 113 6.4 17.7 0.00 0.00 0.00 49 1014.9
20260506235232 15 110 6.4 14.5 0.00 0.00 0.00 49 1014.7
20260506234732 15 117 8.0 27.4 0.00 0.00 0.00 48 1014.7
20260506234233 15 39 8.0 27.4 0.00 0.00 0.00 48 1014.7
20260506233732 15 71 12.9 24.1 0.00 0.00 0.00 47 1014.7
20260506233232 15 124 11.3 22.5 0.00 0.00 0.00 47 1014.6
20260506232732 15 110 11.3 22.5 0.00 0.00 0.00 48 1014.6
20260506232232 15 65 6.4 30.6 0.00 0.00 0.00 48 1014.7
20260506231735 15 102 20.9 30.6 0.00 0.00 0.00 47 1014.7
20260506231515 16 86 4.8 16.1 0.00 0.00 0.00 47 1014.9
20260506231400 16 164 4.8 16.1 0.00 0.00 0.00 48 1014.8
20260506230233 16 85 8.0 17.7 0.00 0.00 0.00 47 1014.9
20260506225731 16 99 6.4 19.3 0.00 0.00 0.00 48 1014.7
20260506225232 16 100 8.0 19.3 0.00 0.00 0.00 46 1014.8
20260506224732 16 123 3.2 16.1 0.00 0.00 0.00 48 1014.8
20260506224619 15 83 6.4 24.1 0.00 0.00 0.00 48 1014.8
20260506223733 15 107 14.5 24.1 0.00 0.00 0.00 48 1014.8
20260506223414 16 109 3.2 14.5 0.00 0.00 0.00 48 1014.9
20260506223404 16 107 8.0 17.7 0.00 0.00 0.00 47 1014.9
20260506223320 15 83 12.9 24.1 0.00 0.00 0.00 47 1014.8
20260506221732 16 16 3.2 20.9 0.00 0.00 0.00 49 1015.1
20260506221233 16 114 8.0 20.9 0.00 0.00 0.00 49 1015.1
20260506220732 16 193 4.8 14.5 0.00 0.00 0.00 48 1015.3
20260506220233 16 34 3.2 19.3 0.00 0.00 0.00 48 1015.3
20260506215732 16 42 9.7 19.3 0.00 0.00 0.00 47 1015.3
20260506215231 16 78 4.8 17.7 0.00 0.00 0.00 48 1015.2
20260506214733 16 138 1.6 11.3 0.00 0.00 0.00 48 1015.3
20260506214233 16 18 3.2 20.9 0.00 0.00 0.00 48 1015.3
20260506213732 15 24 8.0 24.1 0.00 0.00 0.00 49 1015.4
20260506213232 15 106 11.3 24.1 0.00 0.00 0.00 48 1015.5
20260506212732 15 49 8.0 19.3 0.00 0.00 0.00 48 1015.4
20260506212231 16 111 6.4 27.4 0.00 0.00 0.00 50 1015.4
20260506211915 16 37 3.2 24.1 0.00 0.00 0.00 49 1015.5
20260506211907 16 75 8.0 24.1 0.00 0.00 0.00 48 1015.5
20260506211822 16 59 8.0 27.4 0.00 0.00 0.00 48 1015.5
20260506210231 16 85 8.0 19.3 0.00 0.00 0.00 48 1015.5
20260506205734 15 56 3.2 17.7 0.00 0.00 0.00 51 1015.5
20260506205621 14 56 4.8 17.7 0.00 0.00 0.00 51 1015.5
20260506204731 15 44 6.4 11.3 0.00 0.00 0.00 50 1015.6
20260506204619 15 11 3.2 16.1 0.00 0.00 0.00 47 1015.6
20260506204116 17 34 6.4 24.1 0.00 0.00 0.00 47 1015.5
20260506203231 16 83 9.7 24.1 0.00 0.00 0.00 48 1015.5
20260506202732 16 17 8.0 17.7 0.00 0.00 0.00 49 1015.5
20260506202233 16 18 4.8 16.1 0.00 0.00 0.00 49 1015.5
20260506202021 15 111 14.5 20.9 0.00 0.00 0.00 49 1015.4
20260506201906 16 45 4.8 20.9 0.00 0.00 0.00 49 1015.4
20260506200731 16 82 8.0 14.5 0.00 0.00 0.00 48 1015.3
20260506200232 16 49 3.2 16.1 0.00 0.00 0.00 48 1015.3
20260506195734 15 130 8.0 24.1 0.00 0.00 0.00 49 1015.3
20260506195232 15 100 8.0 24.1 0.00 0.00 0.00 49 1015.6
20260506194732 16 102 4.8 20.9 0.00 0.00 0.00 48 1015.5
20260506194232 16 45 4.8 17.7 0.00 0.00 0.00 51 1015.6
20260506193731 15 130 4.8 11.3 0.00 0.00 0.00 50 1015.6
20260506193233 15 117 4.8 14.5 0.00 0.00 0.00 50 1015.7
20260506192733 15 120 4.8 14.5 0.00 0.00 0.00 52 1015.9
20260506192232 13 104 3.2 11.3 0.00 0.00 0.00 53 1015.9
20260506191731 13 59 4.8 14.5 0.00 0.00 0.00 52 1015.9
20260506191237 14 120 4.8 16.1 0.00 0.00 0.00 52 1015.9
20260506190732 15 90 4.8 16.1 0.00 0.00 0.00 50 1015.9
20260506190233 15 28 3.2 11.3 0.00 0.00 0.00 52 1015.8